Regional Weather Roundup
Issued by NWS Boston, MA

Current Version | Previous Version | Text Only | Print | Product List | Glossary On
Versions: 1 2 3 4 5 6 7 8 9 10 11 12 13 14 15 16 17 18 19 20 21 22 23 24 25 26 27 28 29 30 31 32 33 34 35 36 37 38 39 40 41 42 43 44 45 46 47 48 49 50
000 ASUS41 KBOX 282210 RWRBOX REGIONAL WEATHER ROUNDUP NATIONAL WEATHER SERVICE TAUNTON MA 600 PM EDT FRI AUG 28 2015 NOTE: "FAIR" INDICATES FEW OR NO CLOUDS BELOW 12,000 FEET WITH NO SIGNIFICANT WEATHER AND/OR OBSTRUCTIONS TO VISIBILITY. THE FOLLOWING OBSERVATION LOCATIONS DO NOT REPORT PRESENT WEATHER...PROVINCETOWN... SMITHFIELD...BLOCK ISLAND...KEENE...AND OXFORD. MAZALL-282300- EASTERN MASSACHUSETTS CITY SKY/WX TMP DP RH WIND PRES REMARKS BOSTON MOSUNNY 72 61 68 E10 30.11R BEVERLY SUNNY 71 56 58 SE8 30.10S LAWRENCE PTSUNNY 78 54 43 N6 30.11S BEDFORD CLOUDY 76 54 46 MISG 30.09S BLUE HILL N/A 76 55 48 NW7 30.11S NORWOOD MOSUNNY 78 54 43 NW5 30.10R MARSHFIELD SUNNY 72 61 68 SE7 30.13S PLYMOUTH SUNNY 74 60 61 SE7 30.12S TAUNTON PTSUNNY 76 55 48 SW3 30.09F NEW BEDFORD MOSUNNY 75 57 53 SW10 30.10S $$ MAZALL-282300- CAPE COD AND THE ISLANDS CITY SKY/WX TMP DP RH WIND PRES REMARKS FALMOUTH SUNNY 73 57 56 W10 30.12S HYANNIS SUNNY 73 61 65 SE6 30.11S CHATHAM SUNNY 70 62 76 E6 30.13F PROVINCETOWN SUNNY 73 57 56 SE5 30.12S NANTUCKET SUNNY 73 57 57 SW8 30.13S MARTHAS VNYRD SUNNY 74 59 59 SW7 30.12S $$ MAZALL-282300- CENTRAL AND WESTERN MASSACHUSETTS CITY SKY/WX TMP DP RH WIND PRES REMARKS WORCESTER SUNNY 73 51 46 W5 30.15R FITCHBURG SUNNY 78 51 38 NW8 30.12R ORANGE MOSUNNY 74 53 48 W7 30.13R SPRINGFIELD MOSUNNY 77 55 45 N5 30.11R WESTFIELD SUNNY 77 54 44 W5 30.12S NORTH ADAMS SUNNY 72 54 53 CALM 30.14S PITTSFIELD MOSUNNY 71 54 54 W9 30.15S $$ RIZALL-282300- RHODE ISLAND CITY SKY/WX TMP DP RH WIND PRES REMARKS PROVIDENCE MOSUNNY 77 58 51 SE8 30.11S NEWPORT SUNNY 74 59 59 S8 30.12S BLOCK ISLAND SUNNY 73 59 60 SW7 30.13S SMITHFIELD SUNNY 70 61 73 CALM 30.12S WESTERLY SUNNY 75 58 55 SW8 30.13S $$ CTZALL-282300- CONNECTICUT CITY SKY/WX TMP DP RH WIND PRES REMARKS BRADLEY INTL MOSUNNY 79 55 43 NW5 30.12R HARTFORD MOSUNNY 79 53 40 N3 30.11S BRIDGEPORT SUNNY 77 54 44 S9 30.13S DANBURY SUNNY 74 52 46 VRB3 30.15S GROTON SUNNY 74 58 57 SW8 30.12R NEW HAVEN MOSUNNY 75 54 47 SW6 30.13S CHESTER NOT AVBL MERIDEN SUNNY 80 52 37 NW5 30.12R WILLIMANTIC SUNNY 77 52 41 W6 30.13R OXFORD MOSUNNY 75 54 46 NW7 30.17R $$ MEZ002-015-021-024-NHZ003-005-008-011-012-014-VTZ005-008-282300- NORTHERN NEW ENGLAND CITY SKY/WX TMP DP RH WIND PRES REMARKS PORTLAND ME MOSUNNY 71 57 61 S14 30.09S BANGOR ME MOSUNNY 75 55 49 W5 30.06F CONCORD NH SUNNY 78 51 38 W7 30.11R MANCHESTER NH MOSUNNY 77 51 40 W6 30.09R NASHUA NH MOSUNNY 79 53 40 W8 30.11R PORTSMOUTH NH MOSUNNY 73 58 59 S9 30.08S JAFFREY NH MOSUNNY 74 53 48 VRB6 30.15R KEENE NH SUNNY 75 54 46 SW5 30.13S BURLINGTON VT MOSUNNY 77 52 41 CALM 30.11S MT. WASHINGTON MOSUNNY 50 39 66 CALM N/A $$ NYZ052-076-282300- EASTERN NEW YORK CITY SKY/WX TMP DP RH WIND PRES REMARKS ALBANY PTSUNNY 74 55 51 W6 30.14S NEW YORK CITY MOSUNNY 80 51 36 CALM 30.12S $$ ANZALL-282300- MARINE OBSERVATIONS STATION/POSITION TIME TEMP WIND PRES VSBY WAVE AIR SEA DIR/SP/G HT/PER (UTC) (F) (DEG/KT/KT) (MB) (MI) (FT/S) BOSTON BUOY 2150 70 71 150/ 12/ 12 1019.9F 3/10 BUZZARDS BAY 2100 230/ 15/ 16 1020.5F NANTUCKET SOUND 2150 73 75 230/ 6/ 8 1019.9F 1/ 6 MASS BAY-STELLWA 2104 70 71 140/ 8/ 10 N/A 1 7/8 3/11 ISLE OF SHOALS 2200 69 170/ 15/ 16 1018.7S S OF BLOCK IS 2108 76 N/A 3/11 $$ ......................KEY......................... SKY/WX - SKY CONDITION/PRESENT WEATHER TMP - TEMPERATURE IN FAHRENHEIT DWPT - DEWPOINT IN FAHRENHEIT RH - RELATIVE HUMIDITY IN PERCENT WIND - DIRECTION AND SPEED IN MPH PRES - MEAN SEA LEVEL PRESSURE IN INCHES OF HG WCI - WIND CHILL INDEX VSB - VISIBILITY IN MILES HX - HEAT INDEX TC - TEMPERATURE IN CELSIUS VRB - VARIABLE WIND DIRECTION N/A - NOT AVAILABLE

USA.gov is the U.S. government's official web portal to all federal, state and local government web resources and services.